TimeEDT,TemperatureF,Dew PointF,Humidity,Sea Level PressureIn,VisibilityMPH,Wind Direction,Wind SpeedMPH,Gust SpeedMPH,PrecipitationIn,Events,Conditions,WindDirDegrees,DateUTC
12:15 AM,38.3,38.3,100,29.71,1.0,West,8.1,-,N/A,,Mist,270,2013-03-13 04:15:00
12:35 AM,41.2,41.2,100,29.72,5.0,WSW,21.9,29.9,0.01,,Mist,250,2013-03-13 04:35:00
12:55 AM,40.1,40.1,100,29.74,10.0,West,13.8,25.3,0.01,,Unknown,280,2013-03-13 04:55:00
1:55 AM,38.8,38.8,100,29.72,10.0,West,15.0,19.6,N/A,,Unknown,280,2013-03-13 05:55:00
2:15 AM,38.7,38.5,99,29.73,10.0,West,12.7,20.7,N/A,,Unknown,280,2013-03-13 06:15:00
2:35 AM,38.8,38.3,98,29.73,10.0,West,9.2,16.1,N/A,,Unknown,280,2013-03-13 06:35:00
3:15 AM,38.8,35.6,88,29.73,10.0,West,8.1,18.4,N/A,,Unknown,280,2013-03-13 07:15:00
3:35 AM,39.2,35.2,86,29.74,10.0,West,11.5,24.2,N/A,,Unknown,280,2013-03-13 07:35:00
3:55 AM,39.0,35.1,86,29.74,10.0,West,13.8,21.9,N/A,,Unknown,270,2013-03-13 07:55:00
4:15 AM,38.5,34.7,86,29.74,10.0,NW,8.1,-,N/A,,Unknown,310,2013-03-13 08:15:00
4:35 AM,38.1,34.7,87,29.74,10.0,NW,8.1,-,N/A,,Unknown,310,2013-03-13 08:35:00
5:55 AM,38.1,32.7,81,29.75,10.0,West,11.5,-,N/A,,Unknown,280,2013-03-13 09:55:00
6:15 AM,37.9,32.4,80,29.76,10.0,WNW,6.9,-,N/A,,Unknown,300,2013-03-13 10:15:00
6:35 AM,37.8,32.2,80,29.76,10.0,WNW,5.8,-,N/A,,Unknown,290,2013-03-13 10:35:00
7:15 AM,37.4,32.0,81,29.76,10.0,West,9.2,-,N/A,,Unknown,270,2013-03-13 11:15:00
7:35 AM,36.9,32.0,83,29.75,10.0,WNW,8.1,-,N/A,,Unknown,290,2013-03-13 11:35:00
7:55 AM,37.4,31.8,80,29.75,10.0,WNW,6.9,-,N/A,,Unknown,290,2013-03-13 11:55:00
8:15 AM,37.9,31.5,77,29.74,10.0,WNW,8.1,-,N/A,,Unknown,290,2013-03-13 12:15:00
8:35 AM,38.3,31.1,75,29.74,10.0,WNW,6.9,-,N/A,,Unknown,290,2013-03-13 12:35:00
9:15 AM,39.4,30.9,72,29.73,10.0,West,10.4,-,N/A,,Unknown,270,2013-03-13 13:15:00
9:35 AM,39.4,30.4,70,29.73,10.0,West,12.7,-,N/A,,Unknown,280,2013-03-13 13:35:00
9:55 AM,40.1,29.5,66,29.73,10.0,West,8.1,-,N/A,,Unknown,270,2013-03-13 13:55:00
10:15 AM,41.4,29.5,63,29.73,10.0,West,11.5,16.1,N/A,,Unknown,280,2013-03-13 14:15:00
10:35 AM,41.5,29.3,62,29.73,10.0,West,11.5,16.1,N/A,,Unknown,280,2013-03-13 14:35:00
11:15 AM,-9999,-9999,N/A,-9999,-9999.0,North,-9999.0,-,N/A,,Unknown,0,2013-03-13 15:15:00
11:35 AM,-9999,-9999,N/A,-9999,-9999.0,North,-9999.0,-,N/A,,Unknown,0,2013-03-13 15:35:00
11:55 AM,-9999,-9999,N/A,-9999,-9999.0,North,-9999.0,-,N/A,,Unknown,0,2013-03-13 15:55:00
12:15 PM,42.1,29.8,62,29.72,-9999.0,West,10.4,-,N/A,,Unknown,280,2013-03-13 16:15:00
12:35 PM,41.9,29.7,62,29.72,10.0,West,13.8,19.6,N/A,,Unknown,270,2013-03-13 16:35:00
12:55 PM,42.1,29.3,61,29.73,10.0,West,9.2,17.3,N/A,,Unknown,280,2013-03-13 16:55:00
1:15 PM,43.7,29.1,57,29.72,10.0,West,10.4,-,N/A,,Unknown,280,2013-03-13 17:15:00
1:35 PM,43.3,29.1,57,29.72,10.0,West,10.4,18.4,N/A,,Unknown,280,2013-03-13 17:35:00
1:55 PM,42.8,28.9,58,29.71,10.0,West,10.4,-,N/A,,Unknown,260,2013-03-13 17:55:00
2:15 PM,42.4,27.9,56,29.71,10.0,West,8.1,-,N/A,,Unknown,270,2013-03-13 18:15:00
2:35 PM,42.1,27.7,57,29.71,10.0,WNW,11.5,-,N/A,,Unknown,300,2013-03-13 18:35:00
2:55 PM,41.9,27.3,56,29.70,10.0,West,5.8,-,N/A,,Unknown,280,2013-03-13 18:55:00
3:15 PM,41.9,27.9,58,29.70,10.0,West,5.8,-,N/A,,Unknown,280,2013-03-13 19:15:00
3:35 PM,42.4,27.9,56,29.70,10.0,WNW,9.2,-,N/A,,Unknown,290,2013-03-13 19:35:00
3:55 PM,42.3,27.5,56,29.70,10.0,West,6.9,-,N/A,,Unknown,280,2013-03-13 19:55:00
4:15 PM,42.1,28.0,58,29.70,10.0,WNW,8.1,-,N/A,,Unknown,290,2013-03-13 20:15:00
4:35 PM,42.1,27.7,57,29.70,10.0,WNW,5.8,-,N/A,,Unknown,300,2013-03-13 20:35:00
4:55 PM,41.9,27.3,56,29.70,10.0,NW,5.8,-,N/A,,Unknown,310,2013-03-13 20:55:00
5:15 PM,41.9,27.1,56,29.71,10.0,WNW,6.9,-,N/A,,Unknown,300,2013-03-13 21:15:00
5:35 PM,41.4,27.5,58,29.71,10.0,WNW,8.1,-,N/A,,Unknown,290,2013-03-13 21:35:00
5:55 PM,41.0,27.0,57,29.71,10.0,NW,9.2,-,N/A,,Unknown,320,2013-03-13 21:55:00
6:15 PM,40.5,27.0,59,29.71,10.0,WNW,4.6,-,N/A,,Unknown,300,2013-03-13 22:15:00
6:35 PM,40.1,27.0,59,29.71,10.0,WNW,5.8,-,N/A,,Unknown,300,2013-03-13 22:35:00
6:55 PM,39.6,26.8,60,29.71,10.0,WNW,5.8,-,N/A,,Unknown,290,2013-03-13 22:55:00
7:15 PM,39.2,26.4,60,29.72,10.0,WNW,3.5,-,N/A,,Unknown,290,2013-03-13 23:15:00
7:35 PM,38.3,26.4,62,29.73,10.0,WSW,3.5,-,N/A,,Unknown,250,2013-03-13 23:35:00
7:55 PM,37.6,26.8,65,29.73,10.0,West,3.5,-,N/A,,Unknown,280,2013-03-13 23:55:00
8:15 PM,36.5,27.1,69,29.73,10.0,WNW,3.5,-,N/A,,Unknown,300,2013-03-14 00:15:00
8:35 PM,35.8,27.5,72,29.73,10.0,WNW,3.5,-,N/A,,Unknown,290,2013-03-14 00:35:00
8:55 PM,36.0,27.3,71,29.74,10.0,West,3.5,-,N/A,,Unknown,280,2013-03-14 00:55:00
9:15 PM,35.4,27.5,73,29.74,10.0,Calm,Calm,-,N/A,,Unknown,0,2013-03-14 01:15:00
9:35 PM,34.7,27.1,74,29.75,10.0,Calm,Calm,-,N/A,,Unknown,0,2013-03-14 01:35:00
9:55 PM,33.3,27.3,79,29.75,10.0,Calm,Calm,-,N/A,,Unknown,0,2013-03-14 01:55:00
10:15 PM,32.0,27.3,83,29.75,10.0,Calm,Calm,-,N/A,,Unknown,0,2013-03-14 02:15:00
10:35 PM,29.8,27.3,90,29.75,10.0,Calm,Calm,-,N/A,,Unknown,0,2013-03-14 02:35:00
10:55 PM,29.3,27.3,92,29.75,10.0,Calm,Calm,-,N/A,,Unknown,0,2013-03-14 02:55:00
11:15 PM,28.8,27.1,94,29.74,10.0,Calm,Calm,-,N/A,,Unknown,0,2013-03-14 03:15:00
11:35 PM,28.4,27.1,95,29.74,10.0,Calm,Calm,-,N/A,,Unknown,0,2013-03-14 03:35:00
11:55 PM,28.0,27.0,96,29.74,10.0,Calm,Calm,-,N/A,,Unknown,0,2013-03-14 03:55:00